Time,TemperatureF,DewpointF,PressureIn,WindDirection,WindDirectionDegrees,WindSpeedMPH,WindSpeedGustMPH,Humidity,HourlyPrecipIn,Conditions,Clouds,dailyrainin,SoftwareType,DateUTC
2013-03-01 00:02:00,54.0,48.0,29.97,WNW,293,6.0,8.0,77,-99.99,,,-99.99,,2013-03-01 05:02:00,
2013-03-01 00:11:00,54.0,48.0,29.97,WNW,296,7.0,10.0,78,-99.99,,,-99.99,,2013-03-01 05:11:00,
2013-03-01 00:22:00,54.0,48.0,29.97,WNW,296,7.0,10.0,78,-99.99,,,-99.99,,2013-03-01 05:22:00,
2013-03-01 00:33:00,54.0,48.0,29.97,WNW,296,7.0,10.0,78,-99.99,,,-99.99,,2013-03-01 05:33:00,
2013-03-01 00:42:00,54.0,47.0,29.96,WNW,285,6.0,9.0,76,-99.99,,,-99.99,,2013-03-01 05:42:00,
2013-03-01 00:53:00,54.0,47.0,29.96,WNW,285,6.0,9.0,76,-99.99,,,-99.99,,2013-03-01 05:53:00,
2013-03-01 01:02:00,54.0,47.0,29.95,WNW,287,4.0,6.0,77,-99.99,,,-99.99,,2013-03-01 06:02:00,
2013-03-01 01:12:00,53.0,47.0,29.95,NW,310,4.0,6.0,78,-99.99,,,-99.99,,2013-03-01 06:12:00,
2013-03-01 01:22:00,53.0,47.0,29.95,NW,310,4.0,6.0,78,-99.99,,,-99.99,,2013-03-01 06:22:00,
2013-03-01 01:32:00,52.0,46.0,29.96,NW,312,5.0,8.0,81,-99.99,,,-99.99,,2013-03-01 06:32:00,
2013-03-01 01:42:00,52.0,46.0,29.96,WNW,302,6.0,9.0,79,-99.99,,,-99.99,,2013-03-01 06:42:00,
2013-03-01 01:53:00,52.0,46.0,29.96,WNW,302,6.0,9.0,79,-99.99,,,-99.99,,2013-03-01 06:53:00,
2013-03-01 02:02:00,52.0,45.0,29.96,WNW,301,6.0,8.0,76,-99.99,,,-99.99,,2013-03-01 07:02:00,
2013-03-01 02:12:00,52.0,45.0,29.95,WNW,302,7.0,9.0,76,-99.99,,,-99.99,,2013-03-01 07:12:00,
2013-03-01 02:22:00,52.0,45.0,29.95,WNW,302,7.0,9.0,76,-99.99,,,-99.99,,2013-03-01 07:22:00,
2013-03-01 02:32:00,52.0,45.0,29.95,WNW,294,7.0,10.0,75,-99.99,,,-99.99,,2013-03-01 07:32:00,
2013-03-01 02:42:00,52.0,44.0,29.95,WNW,293,6.0,7.0,76,-99.99,,,-99.99,,2013-03-01 07:42:00,
2013-03-01 02:52:00,52.0,44.0,29.95,WNW,293,6.0,7.0,76,-99.99,,,-99.99,,2013-03-01 07:52:00,
2013-03-01 03:02:00,51.0,44.0,29.95,WNW,294,5.0,6.0,77,-99.99,,,-99.99,,2013-03-01 08:02:00,
2013-03-01 03:12:00,51.0,44.0,29.94,WSW,255,3.0,6.0,77,-99.99,,,-99.99,,2013-03-01 08:12:00,
2013-03-01 03:22:00,51.0,44.0,29.94,WSW,255,3.0,6.0,77,-99.99,,,-99.99,,2013-03-01 08:22:00,
2013-03-01 03:32:00,51.0,44.0,29.94,WSW,255,3.0,6.0,77,-99.99,,,-99.99,,2013-03-01 08:32:00,
2013-03-01 03:43:00,51.0,44.0,29.95,West,275,5.0,7.0,78,-99.99,,,-99.99,,2013-03-01 08:43:00,
2013-03-01 03:53:00,51.0,44.0,29.95,West,275,5.0,7.0,78,-99.99,,,-99.99,,2013-03-01 08:53:00,
2013-03-01 04:02:00,51.0,45.0,29.95,West,276,5.0,8.0,77,-99.99,,,-99.99,,2013-03-01 09:02:00,
2013-03-01 04:12:00,51.0,44.0,29.94,WNW,298,4.0,6.0,78,-99.99,,,-99.99,,2013-03-01 09:12:00,
2013-03-01 04:22:00,51.0,44.0,29.94,WNW,298,4.0,6.0,78,-99.99,,,-99.99,,2013-03-01 09:22:00,
2013-03-01 04:32:00,50.0,44.0,29.93,NW,306,4.0,6.0,79,-99.99,,,-99.99,,2013-03-01 09:32:00,
2013-03-01 04:42:00,48.0,43.0,29.93,NW,307,3.0,4.0,81,-99.99,,,-99.99,,2013-03-01 09:42:00,
2013-03-01 04:53:00,48.0,43.0,29.93,NW,307,3.0,4.0,81,-99.99,,,-99.99,,2013-03-01 09:53:00,
2013-03-01 05:02:00,48.0,43.0,29.93,WNW,302,2.0,3.0,84,-99.99,,,-99.99,,2013-03-01 10:02:00,
2013-03-01 05:12:00,47.0,43.0,29.93,WNW,284,2.0,3.0,84,-99.99,,,-99.99,,2013-03-01 10:12:00,
2013-03-01 05:22:00,47.0,43.0,29.93,WNW,284,2.0,3.0,84,-99.99,,,-99.99,,2013-03-01 10:22:00,
2013-03-01 05:32:00,47.0,43.0,29.93,WNW,293,4.0,6.0,86,-99.99,,,-99.99,,2013-03-01 10:32:00,
2013-03-01 05:42:00,47.0,43.0,29.94,WNW,302,5.0,7.0,85,-99.99,,,-99.99,,2013-03-01 10:42:00,
2013-03-01 05:53:00,48.0,43.0,29.94,NW,304,5.0,7.0,84,-99.99,,,-99.99,,2013-03-01 10:53:00,
2013-03-01 06:02:00,47.0,43.0,29.95,NW,306,5.0,6.0,84,-99.99,,,-99.99,,2013-03-01 11:02:00,
2013-03-01 06:12:00,47.0,43.0,29.95,NW,306,5.0,6.0,84,-99.99,,,-99.99,,2013-03-01 11:12:00,
2013-03-01 06:23:00,47.0,43.0,29.95,NW,306,5.0,6.0,84,-99.99,,,-99.99,,2013-03-01 11:23:00,
2013-03-01 06:32:00,47.0,43.0,29.95,NW,306,5.0,6.0,84,-99.99,,,-99.99,,2013-03-01 11:32:00,
2013-03-01 06:42:00,47.0,43.0,29.97,NW,316,5.0,8.0,85,-99.99,,,-99.99,,2013-03-01 11:42:00,
2013-03-01 06:53:00,47.0,43.0,29.97,NW,316,5.0,8.0,85,-99.99,,,-99.99,,2013-03-01 11:53:00,
2013-03-01 07:02:00,46.0,42.0,29.98,NNW,330,6.0,8.0,86,-99.99,,,-99.99,,2013-03-01 12:02:00,
2013-03-01 07:11:00,46.0,42.0,29.98,NNW,330,6.0,8.0,86,-99.99,,,-99.99,,2013-03-01 12:11:00,
2013-03-01 07:22:00,46.0,42.0,29.98,NNW,330,6.0,8.0,86,-99.99,,,-99.99,,2013-03-01 12:22:00,
2013-03-01 07:32:00,47.0,42.0,29.98,NNW,331,6.0,9.0,83,-99.99,,,-99.99,,2013-03-01 12:32:00,
2013-03-01 07:42:00,47.0,42.0,29.98,NNW,334,4.0,6.0,83,-99.99,,,-99.99,,2013-03-01 12:42:00,
2013-03-01 07:52:00,47.0,42.0,29.98,NNW,334,4.0,6.0,83,-99.99,,,-99.99,,2013-03-01 12:52:00,
2013-03-01 08:01:00,48.0,43.0,29.99,NW,326,3.0,5.0,83,-99.99,,,-99.99,,2013-03-01 13:01:00,
2013-03-01 08:11:00,48.0,43.0,29.99,NW,326,3.0,5.0,83,-99.99,,,-99.99,,2013-03-01 13:11:00,
2013-03-01 08:22:00,48.0,43.0,29.99,NW,326,3.0,5.0,83,-99.99,,,-99.99,,2013-03-01 13:22:00,
2013-03-01 08:32:00,48.0,43.0,29.99,NW,326,4.0,5.0,82,-99.99,,,-99.99,,2013-03-01 13:32:00,
2013-03-01 08:42:00,49.0,43.0,30.00,NW,324,4.0,6.0,80,-99.99,,,-99.99,,2013-03-01 13:42:00,
2013-03-01 08:52:00,51.0,43.0,30.00,NW,314,3.0,5.0,75,-99.99,,,-99.99,,2013-03-01 13:52:00,
2013-03-01 09:02:00,51.0,43.0,30.00,NW,314,3.0,5.0,75,-99.99,,,-99.99,,2013-03-01 14:02:00,
2013-03-01 09:11:00,52.0,43.0,30.01,NW,323,6.0,11.0,69,-99.99,,,-99.99,,2013-03-01 14:11:00,
2013-03-01 09:22:00,52.0,43.0,30.01,NW,323,6.0,11.0,69,-99.99,,,-99.99,,2013-03-01 14:22:00,
2013-03-01 09:32:00,52.0,43.0,30.01,NW,323,6.0,11.0,69,-99.99,,,-99.99,,2013-03-01 14:32:00,
2013-03-01 09:42:00,56.0,39.0,30.02,WNW,299,9.0,12.0,52,-99.99,,,-99.99,,2013-03-01 14:42:00,
2013-03-01 09:52:00,56.0,39.0,30.02,WNW,299,9.0,12.0,52,-99.99,,,-99.99,,2013-03-01 14:52:00,
2013-03-01 10:02:00,57.0,38.0,30.01,South,175,9.0,13.0,48,-99.99,,,-99.99,,2013-03-01 15:02:00,
2013-03-01 10:11:00,58.0,38.0,30.01,WSW,258,8.0,11.0,47,-99.99,,,-99.99,,2013-03-01 15:11:00,
2013-03-01 10:21:00,58.0,38.0,30.01,WSW,258,8.0,11.0,47,-99.99,,,-99.99,,2013-03-01 15:21:00,
2013-03-01 10:32:00,58.0,36.0,30.02,NW,312,9.0,13.0,45,-99.99,,,-99.99,,2013-03-01 15:32:00,
2013-03-01 10:42:00,57.0,35.0,30.02,NW,315,7.0,12.0,44,-99.99,,,-99.99,,2013-03-01 15:42:00,
2013-03-01 10:52:00,57.0,35.0,30.02,NW,315,7.0,12.0,44,-99.99,,,-99.99,,2013-03-01 15:52:00,
2013-03-01 11:01:00,58.0,36.0,30.01,NW,307,7.0,11.0,44,-99.99,,,-99.99,,2013-03-01 16:01:00,
2013-03-01 11:11:00,58.0,36.0,30.01,NW,322,8.0,11.0,44,-99.99,,,-99.99,,2013-03-01 16:11:00,
2013-03-01 11:22:00,58.0,36.0,30.01,NW,322,8.0,11.0,44,-99.99,,,-99.99,,2013-03-01 16:22:00,
2013-03-01 11:32:00,59.0,35.0,30.02,NW,312,7.0,11.0,41,-99.99,,,-99.99,,2013-03-01 16:32:00,
2013-03-01 11:42:00,59.0,35.0,30.02,NW,305,9.0,12.0,39,-99.99,,,-99.99,,2013-03-01 16:42:00,
2013-03-01 11:52:00,59.0,35.0,30.02,NW,305,9.0,12.0,39,-99.99,,,-99.99,,2013-03-01 16:52:00,
2013-03-01 12:01:00,60.0,35.0,30.02,NW,311,9.0,13.0,39,-99.99,,,-99.99,,2013-03-01 17:01:00,
2013-03-01 12:11:00,60.0,34.0,30.02,WNW,294,9.0,15.0,37,-99.99,,,-99.99,,2013-03-01 17:11:00,
2013-03-01 12:21:00,60.0,34.0,30.02,WNW,294,9.0,15.0,37,-99.99,,,-99.99,,2013-03-01 17:21:00,
2013-03-01 12:32:00,60.0,34.0,30.02,WNW,294,9.0,15.0,37,-99.99,,,-99.99,,2013-03-01 17:32:00,
2013-03-01 12:42:00,60.0,34.0,30.01,WNW,298,7.0,13.0,37,-99.99,,,-99.99,,2013-03-01 17:42:00,
2013-03-01 12:52:00,60.0,34.0,30.01,WNW,298,7.0,13.0,37,-99.99,,,-99.99,,2013-03-01 17:52:00,
2013-03-01 13:02:00,61.0,35.0,30.00,WNW,302,8.0,14.0,37,-99.99,,,-99.99,,2013-03-01 18:02:00,
2013-03-01 13:12:00,60.0,36.0,29.99,WNW,288,9.0,13.0,40,-99.99,,,-99.99,,2013-03-01 18:12:00,
2013-03-01 13:22:00,60.0,36.0,29.99,WNW,288,9.0,13.0,40,-99.99,,,-99.99,,2013-03-01 18:22:00,
2013-03-01 13:32:00,59.0,36.0,29.98,NW,306,7.0,12.0,42,-99.99,,,-99.99,,2013-03-01 18:32:00,
2013-03-01 13:42:00,60.0,37.0,29.98,WNW,296,7.0,12.0,42,-99.99,,,-99.99,,2013-03-01 18:42:00,
2013-03-01 13:52:00,60.0,37.0,29.98,WNW,296,7.0,12.0,42,-99.99,,,-99.99,,2013-03-01 18:52:00,
2013-03-01 14:02:00,59.0,36.0,29.97,WNW,291,8.0,11.0,42,-99.99,,,-99.99,,2013-03-01 19:02:00,
2013-03-01 14:11:00,59.0,36.0,29.97,WNW,293,6.0,10.0,41,-99.99,,,-99.99,,2013-03-01 19:11:00,
2013-03-01 14:21:00,59.0,36.0,29.97,WNW,293,6.0,10.0,41,-99.99,,,-99.99,,2013-03-01 19:21:00,
2013-03-01 14:32:00,60.0,36.0,29.96,WNW,284,8.0,14.0,40,-99.99,,,-99.99,,2013-03-01 19:32:00,
2013-03-01 14:42:00,61.0,36.0,29.95,West,270,8.0,13.0,39,-99.99,,,-99.99,,2013-03-01 19:42:00,
2013-03-01 14:52:00,61.0,36.0,29.95,West,270,8.0,13.0,39,-99.99,,,-99.99,,2013-03-01 19:52:00,
2013-03-01 15:01:00,61.0,36.0,29.95,West,275,6.0,12.0,39,-99.99,,,-99.99,,2013-03-01 20:01:00,
2013-03-01 15:11:00,61.0,37.0,29.94,WSW,249,7.0,10.0,40,-99.99,,,-99.99,,2013-03-01 20:11:00,
2013-03-01 15:21:00,61.0,37.0,29.94,WSW,249,7.0,10.0,40,-99.99,,,-99.99,,2013-03-01 20:21:00,
2013-03-01 15:32:00,61.0,37.0,29.94,WSW,249,7.0,10.0,40,-99.99,,,-99.99,,2013-03-01 20:32:00,
2013-03-01 15:42:00,61.0,36.0,29.94,WSW,258,7.0,10.0,40,-99.99,,,-99.99,,2013-03-01 20:42:00,
2013-03-01 15:52:00,61.0,36.0,29.94,WSW,258,7.0,10.0,40,-99.99,,,-99.99,,2013-03-01 20:52:00,
2013-03-01 16:02:00,62.0,35.0,29.95,West,262,9.0,15.0,36,-99.99,,,-99.99,,2013-03-01 21:02:00,
2013-03-01 16:11:00,62.0,34.0,29.95,West,274,9.0,14.0,35,-99.99,,,-99.99,,2013-03-01 21:11:00,
2013-03-01 16:21:00,62.0,34.0,29.95,West,274,9.0,14.0,35,-99.99,,,-99.99,,2013-03-01 21:21:00,
2013-03-01 16:32:00,62.0,34.0,29.95,West,269,10.0,14.0,34,-99.99,,,-99.99,,2013-03-01 21:32:00,
2013-03-01 16:42:00,62.0,33.0,29.95,West,265,10.0,16.0,34,-99.99,,,-99.99,,2013-03-01 21:42:00,
2013-03-01 16:52:00,62.0,33.0,29.95,West,265,10.0,16.0,34,-99.99,,,-99.99,,2013-03-01 21:52:00,
2013-03-01 17:01:00,61.0,33.0,29.95,West,276,8.0,11.0,35,-99.99,,,-99.99,,2013-03-01 22:01:00,
2013-03-01 17:12:00,61.0,34.0,29.95,West,279,6.0,9.0,37,-99.99,,,-99.99,,2013-03-01 22:12:00,
2013-03-01 17:22:00,61.0,34.0,29.95,West,279,6.0,9.0,37,-99.99,,,-99.99,,2013-03-01 22:22:00,
2013-03-01 17:32:00,61.0,35.0,29.94,West,271,4.0,7.0,37,-99.99,,,-99.99,,2013-03-01 22:32:00,
2013-03-01 17:42:00,61.0,35.0,29.94,West,265,4.0,7.0,38,-99.99,,,-99.99,,2013-03-01 22:42:00,
2013-03-01 17:52:00,61.0,35.0,29.94,West,265,4.0,7.0,38,-99.99,,,-99.99,,2013-03-01 22:52:00,
2013-03-01 18:01:00,61.0,35.0,29.94,West,278,6.0,13.0,39,-99.99,,,-99.99,,2013-03-01 23:01:00,
2013-03-01 18:11:00,61.0,34.0,29.95,WNW,285,9.0,17.0,37,-99.99,,,-99.99,,2013-03-01 23:11:00,
2013-03-01 18:21:00,61.0,34.0,29.95,WNW,285,9.0,17.0,37,-99.99,,,-99.99,,2013-03-01 23:21:00,
2013-03-01 18:32:00,61.0,34.0,29.95,WNW,285,9.0,17.0,37,-99.99,,,-99.99,,2013-03-01 23:32:00,
2013-03-01 18:42:00,60.0,36.0,29.96,West,279,8.0,12.0,41,-99.99,,,-99.99,,2013-03-01 23:42:00,
2013-03-01 18:52:00,60.0,36.0,29.96,West,279,8.0,12.0,41,-99.99,,,-99.99,,2013-03-01 23:52:00,
2013-03-01 19:02:00,59.0,36.0,29.96,WNW,288,9.0,13.0,42,-99.99,,,-99.99,,2013-03-02 00:02:00,
2013-03-01 19:12:00,58.0,36.0,29.96,WNW,286,10.0,15.0,44,-99.99,,,-99.99,,2013-03-02 00:12:00,
2013-03-01 19:22:00,58.0,36.0,29.96,WNW,286,10.0,15.0,44,-99.99,,,-99.99,,2013-03-02 00:22:00,
2013-03-01 19:32:00,57.0,36.0,29.97,WNW,293,9.0,17.0,45,-99.99,,,-99.99,,2013-03-02 00:32:00,
2013-03-01 19:42:00,56.0,36.0,29.98,WNW,289,8.0,11.0,46,-99.99,,,-99.99,,2013-03-02 00:42:00,
2013-03-01 19:52:00,56.0,36.0,29.98,WNW,289,8.0,11.0,46,-99.99,,,-99.99,,2013-03-02 00:52:00,
2013-03-01 20:01:00,56.0,36.0,29.98,WNW,285,10.0,14.0,46,-99.99,,,-99.99,,2013-03-02 01:01:00,
2013-03-01 20:11:00,56.0,37.0,29.98,WNW,284,9.0,14.0,48,-99.99,,,-99.99,,2013-03-02 01:11:00,
2013-03-01 20:21:00,56.0,37.0,29.98,WNW,284,9.0,14.0,48,-99.99,,,-99.99,,2013-03-02 01:21:00,
2013-03-01 20:32:00,56.0,37.0,29.99,WNW,288,10.0,17.0,49,-99.99,,,-99.99,,2013-03-02 01:32:00,
2013-03-01 20:42:00,55.0,37.0,29.99,WNW,295,10.0,17.0,50,-99.99,,,-99.99,,2013-03-02 01:42:00,
2013-03-01 20:52:00,55.0,37.0,29.99,WNW,295,10.0,17.0,50,-99.99,,,-99.99,,2013-03-02 01:52:00,
2013-03-01 21:01:00,55.0,36.0,29.99,WNW,295,9.0,14.0,49,-99.99,,,-99.99,,2013-03-02 02:01:00,
2013-03-01 21:11:00,55.0,36.0,30.00,WNW,293,7.0,11.0,49,-99.99,,,-99.99,,2013-03-02 02:11:00,
2013-03-01 21:22:00,55.0,36.0,30.00,WNW,293,7.0,11.0,49,-99.99,,,-99.99,,2013-03-02 02:22:00,
2013-03-01 21:32:00,55.0,36.0,30.00,WNW,293,7.0,11.0,49,-99.99,,,-99.99,,2013-03-02 02:32:00,
2013-03-01 21:42:00,54.0,35.0,30.00,WNW,288,6.0,10.0,48,-99.99,,,-99.99,,2013-03-02 02:42:00,
2013-03-01 21:52:00,54.0,35.0,30.00,WNW,288,6.0,10.0,48,-99.99,,,-99.99,,2013-03-02 02:52:00,
2013-03-01 22:02:00,54.0,36.0,30.01,WNW,286,11.0,18.0,50,-99.99,,,-99.99,,2013-03-02 03:02:00,
2013-03-01 22:11:00,54.0,36.0,30.01,WNW,290,11.0,17.0,51,-99.99,,,-99.99,,2013-03-02 03:11:00,
2013-03-01 22:22:00,54.0,36.0,30.01,WNW,290,11.0,17.0,51,-99.99,,,-99.99,,2013-03-02 03:22:00,
2013-03-01 22:32:00,54.0,37.0,30.02,WNW,285,7.0,13.0,53,-99.99,,,-99.99,,2013-03-02 03:32:00,
2013-03-01 22:42:00,54.0,38.0,30.02,WNW,297,8.0,12.0,54,-99.99,,,-99.99,,2013-03-02 03:42:00,
2013-03-01 22:53:00,54.0,38.0,30.02,WNW,297,8.0,12.0,54,-99.99,,,-99.99,,2013-03-02 03:53:00,
2013-03-01 23:02:00,53.0,38.0,30.02,WNW,292,10.0,17.0,56,-99.99,,,-99.99,,2013-03-02 04:02:00,
2013-03-01 23:12:00,53.0,39.0,30.02,WNW,292,9.0,15.0,57,-99.99,,,-99.99,,2013-03-02 04:12:00,
2013-03-01 23:22:00,53.0,39.0,30.02,WNW,292,9.0,15.0,57,-99.99,,,-99.99,,2013-03-02 04:22:00,
2013-03-01 23:32:00,53.0,39.0,30.01,WNW,302,9.0,14.0,58,-99.99,,,-99.99,,2013-03-02 04:32:00,
2013-03-01 23:42:00,53.0,39.0,30.01,WNW,303,10.0,14.0,59,-99.99,,,-99.99,,2013-03-02 04:42:00,
2013-03-01 23:52:00,53.0,39.0,30.01,WNW,303,10.0,14.0,59,-99.99,,,-99.99,,2013-03-02 04:52:00,